カタログに戻る

METEOR-M

運用中気象SSO
NORAD 35865·PAYLOAD·🇷🇺 Russia

打ち上げ Sep 17, 2009 から Baikonur Cosmodrome

Loading…

次のパス (今後24時間)

TLE

最新Source: Space-Track

元期: Sep 14, 2026, 08:43 UTC

1 35865U 09049A   26257.36356750  .00000035  00000-0  35240-4 0  9992
2 35865  98.7497 219.2380 0003220  62.9365 297.2141 14.23172944881938

AllMySatでMETEOR-Mをリアルタイム追跡

Download on the App Store